Location: Unspecified
(44.0704°N, 88.6889°W)
Time: 04:25:14
(UTC+02:00)

Transit 2A - Pass Details

Date: 20 June 2019
Orbit: 594 x 965 km, 66.7° (Epoch: 16 July)

Event Time Altitude Azimuth Distance (km) Brightness Sun altitude
Rises 19:01:38 0° 312° (NW) 3,376 9.1 66.5°
Reaches altitude 10° 19:05:25 10° 288° (WNW) 2,348 8.5 66.9°
Maximum altitude 19:07:58 14° 259° (WSW) 2,039 8.3 67.1°
Drops below altitude 10° 19:10:25 10° 229° (SW) 2,219 8.6 67.3°
Sets 19:13:49 0° 204° (SSW) 3,050 9.3 67.6°
